Location: Unspecified
(28.6330°N, 0.0000°E)
Time: 02:57:58
(UTC+00:00)

SL-16 DEB - Visible Passes

Search period start: 04 April 2026 00:00
Search period end: 14 April 2026 00:00
Orbit: 796 x 808 km, 71.0° (Epoch: 28 March)

Date Brightness Start Highest point End Pass type
(mag) Time Alt. Az. Time Alt. Az. Time Alt. Az.
4 Apr ? 19:16:16 10° NW 19:20:51 29° WSW 19:25:25 10° SSW visible
5 Apr ? 18:48:47 10° NW 18:53:49 40° WSW 18:58:49 10° S visible
9 Apr ? 18:45:16 10° WNW 18:47:59 14° W 18:50:42 10° SW visible
12 Apr ? 05:02:39 10° SE 05:05:10 13° E 05:07:41 10° ENE visible
